| time (UTC) | temp F | wind direction | speed MPH | gust MPH | rain 1hr in | rain 24hr in | rain mn in | humidity % | barometer mb |
| 20260509182001 | 52 | 0.0 | 0.0 | 0.00 | 0.00 | 0.00 | 79 | 1019.3 | |
| 20260509181001 | 53 | 0.0 | 0.0 | 0.00 | 0.00 | 0.00 | 77 | 1019.4 | |
| 20260509180001 | 53 | 0.0 | 0.0 | 0.00 | 0.00 | 0.00 | 76 | 1019.3 | |
| 20260509175001 | 53 | 0.0 | 0.0 | 0.00 | 0.00 | 0.00 | 75 | 1019.4 | |
| 20260509174001 | 54 | 0.0 | 0.0 | 0.00 | 0.00 | 0.00 | 74 | 1019.4 | |
| 20260509173001 | 54 | 0.0 | 0.0 | 0.00 | 0.00 | 0.00 | 72 | 1019.3 | |
| 20260509172001 | 54 | 0.0 | 0.0 | 0.00 | 0.00 | 0.00 | 71 | 1019.2 | |
| 20260509171001 | 55 | 0.0 | 0.0 | 0.00 | 0.00 | 0.00 | 70 | 1019.2 | |
| 20260509170001 | 55 | 0.0 | 0.0 | 0.00 | 0.00 | 0.00 | 69 | 1019.0 | |
| 20260509165001 | 55 | 0.0 | 0.0 | 0.00 | 0.00 | 0.00 | 68 | 1019.2 | |
| 20260509164001 | 55 | 0.0 | 0.0 | 0.00 | 0.00 | 0.00 | 70 | 1019.3 | |
| 20260509162001 | 55 | 0.0 | 0.0 | 0.00 | 0.00 | 0.00 | 69 | 1019.3 | |
| 20260509161001 | 55 | 0.0 | 0.0 | 0.00 | 0.00 | 0.00 | 70 | 1019.2 | |
| 20260509160001 | 56 | 0.0 | 0.0 | 0.00 | 0.00 | 0.00 | 68 | 1019.2 | |
| 20260509155000 | 56 | 0.0 | 0.0 | 0.00 | 0.00 | 0.00 | 68 | 1019.3 | |
| 20260509154001 | 57 | 0.0 | 0.0 | 0.00 | 0.00 | 0.00 | 66 | 1019.3 | |
| 20260509153000 | 57 | 0.0 | 0.0 | 0.00 | 0.00 | 0.00 | 66 | 1019.2 | |
| 20260509152000 | 57 | 0.0 | 0.0 | 0.00 | 0.00 | 0.00 | 65 | 1019.2 | |
| 20260509151000 | 57 | 0.0 | 0.0 | 0.00 | 0.00 | 0.00 | 66 | 1019.2 | |
| 20260509150000 | 57 | 0.0 | 0.0 | 0.00 | 0.00 | 0.00 | 68 | 1019.3 | |
| 20260509145000 | 57 | 0.0 | 0.0 | 0.00 | 0.00 | 0.00 | 68 | 1019.2 | |
| 20260509144000 | 57 | 0.0 | 0.0 | 0.00 | 0.00 | 0.00 | 64 | 1019.3 | |
| 20260509143000 | 58 | 0.0 | 0.0 | 0.00 | 0.00 | 0.00 | 63 | 1019.2 | |
| 20260509142000 | 58 | 0.0 | 0.0 | 0.00 | 0.00 | 0.00 | 62 | 1019.2 | |
| 20260509141000 | 57 | 0.0 | 0.0 | 0.00 | 0.00 | 0.00 | 62 | 1019.2 | |
| 20260509140000 | 58 | 0.0 | 0.0 | 0.00 | 0.00 | 0.00 | 61 | 1019.2 | |
| 20260509135000 | 58 | 0.0 | 0.0 | 0.00 | 0.00 | 0.00 | 63 | 1019.1 | |
| 20260509134000 | 58 | 0.0 | 0.0 | 0.00 | 0.00 | 0.00 | 61 | 1019.2 | |
| 20260509133000 | 58 | 0.0 | 0.0 | 0.00 | 0.00 | 0.00 | 60 | 1019.3 | |
| 20260509132001 | 59 | 0.0 | 0.0 | 0.00 | 0.00 | 0.00 | 61 | 1019.4 | |
| 20260509131001 | 59 | 0.0 | 0.0 | 0.00 | 0.00 | 0.00 | 61 | 1019.3 | |
| 20260509130001 | 59 | 0.0 | 0.0 | 0.00 | 0.00 | 0.00 | 60 | 1019.4 | |
| 20260509125001 | 60 | 0.0 | 0.0 | 0.00 | 0.00 | 0.00 | 58 | 1019.3 | |
| 20260509124001 | 59 | 0.0 | 0.0 | 0.00 | 0.00 | 0.00 | 58 | 1019.3 | |
| 20260509123001 | 60 | 0.0 | 0.0 | 0.00 | 0.00 | 0.00 | 57 | 1019.5 | |
| 20260509122001 | 59 | 0.0 | 0.0 | 0.00 | 0.00 | 0.00 | 59 | 1019.5 | |
| 20260509120001 | 60 | 0.0 | 0.0 | 0.00 | 0.00 | 0.00 | 57 | 1019.6 | |
| 20260509115001 | 60 | 0.0 | 0.0 | 0.00 | 0.00 | 0.00 | 56 | 1019.6 | |
| 20260509114001 | 60 | 0.0 | 0.0 | 0.00 | 0.00 | 0.00 | 58 | 1019.7 | |
| 20260509113001 | 60 | 0.0 | 0.0 | 0.00 | 0.00 | 0.00 | 57 | 1019.6 | |
| 20260509112001 | 60 | 0.0 | 0.0 | 0.00 | 0.00 | 0.00 | 57 | 1019.5 | |
| 20260509111001 | 59 | 0.0 | 0.0 | 0.00 | 0.00 | 0.00 | 56 | 1019.6 | |
| 20260509110001 | 59 | 0.0 | 0.0 | 0.00 | 0.00 | 0.00 | 58 | 1019.7 | |
| 20260509104001 | 60 | 0.0 | 0.0 | 0.00 | 0.00 | 0.00 | 57 | 1019.7 | |
| 20260509103001 | 60 | 0.0 | 0.0 | 0.00 | 0.00 | 0.00 | 56 | 1019.6 | |
| 20260509102001 | 61 | 0.0 | 0.0 | 0.00 | 0.00 | 0.00 | 55 | 1019.8 | |
| 20260509101001 | 60 | 0.0 | 0.0 | 0.00 | 0.00 | 0.00 | 58 | 1019.8 | |
| 20260509100001 | 60 | 0.0 | 0.0 | 0.00 | 0.00 | 0.00 | 59 | 1019.8 | |
| 20260509095000 | 58 | 0.0 | 0.0 | 0.00 | 0.00 | 0.00 | 61 | 1019.7 | |
| 20260509094001 | 58 | 0.0 | 0.0 | 0.00 | 0.00 | 0.00 | 60 | 1019.7 | |
| 20260509093000 | 58 | 0.0 | 0.0 | 0.00 | 0.00 | 0.00 | 62 | 1019.7 | |
| 20260509092000 | 58 | 0.0 | 0.0 | 0.00 | 0.00 | 0.00 | 63 | 1019.8 | |
| 20260509091000 | 57 | 0.0 | 0.0 | 0.00 | 0.00 | 0.00 | 65 | 1019.7 | |
| 20260509085000 | 57 | 0.0 | 0.0 | 0.00 | 0.00 | 0.00 | 66 | 1019.6 | |
| 20260509084000 | 57 | 0.0 | 0.0 | 0.00 | 0.00 | 0.00 | 66 | 1019.6 | |
| 20260509082000 | 56 | 0.0 | 0.0 | 0.00 | 0.00 | 0.00 | 70 | 1019.5 | |
| 20260509081000 | 56 | 0.0 | 0.0 | 0.00 | 0.00 | 0.00 | 72 | 1019.5 | |
| 20260509080000 | 57 | 0.0 | 0.0 | 0.00 | 0.00 | 0.00 | 71 | 1019.4 | |
| 20260509075000 | 57 | 0.0 | 0.0 | 0.00 | 0.00 | 0.00 | 68 | 1019.5 | |
| 20260509074000 | 57 | 0.0 | 0.0 | 0.00 | 0.00 | 0.00 | 65 | 1019.4 | |
| 20260509072000 | 57 | 0.0 | 0.0 | 0.00 | 0.00 | 0.00 | 63 | 1019.4 | |
| 20260509071001 | 56 | 0.0 | 0.0 | 0.00 | 0.00 | 0.00 | 68 | 1019.3 | |
| 20260509070001 | 55 | 0.0 | 0.0 | 0.00 | 0.00 | 0.00 | 69 | 1019.4 | |
| 20260509065001 | 55 | 0.0 | 0.0 | 0.00 | 0.00 | 0.00 | 74 | 1019.3 | |
| 20260509064001 | 56 | 0.0 | 0.0 | 0.00 | 0.00 | 0.00 | 72 | 1019.3 | |
| 20260509063001 | 56 | 0.0 | 0.0 | 0.00 | 0.00 | 0.00 | 72 | 1019.4 | |
| 20260509062001 | 56 | 0.0 | 0.0 | 0.00 | 0.00 | 0.00 | 71 | 1019.2 | |
| 20260509061001 | 55 | 0.0 | 0.0 | 0.00 | 0.00 | 0.00 | 73 | 1019.2 | |
| 20260509060001 | 57 | 0.0 | 0.0 | 0.00 | 0.00 | 0.00 | 72 | 1019.2 | |
| 20260509055001 | 54 | 0.0 | 0.0 | 0.00 | 0.00 | 0.00 | 79 | 1019.2 | |
| 20260509054001 | 52 | 0.0 | 0.0 | 0.00 | 0.00 | 0.00 | 83 | 1019.2 | |
| 20260509053001 | 52 | 0.0 | 0.0 | 0.00 | 0.00 | 0.00 | 84 | 1019.2 | |
| 20260509052001 | 51 | 0.0 | 0.0 | 0.00 | 0.00 | 0.00 | 85 | 1019.2 | |
| 20260509051001 | 51 | 0.0 | 0.0 | 0.00 | 0.00 | 0.00 | 85 | 1019.3 | |
| 20260509050001 | 51 | 0.0 | 0.0 | 0.00 | 0.00 | 0.00 | 85 | 1019.3 | |
| 20260509045001 | 50 | 0.0 | 0.0 | 0.00 | 0.00 | 0.00 | 85 | 1019.2 | |
| 20260509044001 | 50 | 0.0 | 0.0 | 0.00 | 0.00 | 0.00 | 86 | 1019.1 | |
| 20260509043001 | 50 | 0.0 | 0.0 | 0.00 | 0.00 | 0.00 | 87 | 1019.0 | |
| 20260509042001 | 50 | 0.0 | 0.0 | 0.00 | 0.00 | 0.00 | 88 | 1019.1 | |
| 20260509041000 | 49 | 0.0 | 0.0 | 0.00 | 0.00 | 0.00 | 88 | 1019.1 | |
| 20260509040000 | 49 | 0.0 | 0.0 | 0.00 | 0.00 | 0.00 | 89 | 1019.0 | |
| 20260509035000 | 49 | 0.0 | 0.0 | 0.00 | 0.00 | 0.00 | 90 | 1019.0 | |
| 20260509034000 | 49 | 0.0 | 0.0 | 0.00 | 0.00 | 0.00 | 92 | 1019.0 | |
| 20260509033000 | 49 | 0.0 | 0.0 | 0.00 | 0.00 | 0.00 | 92 | 1019.0 | |
| 20260509032000 | 49 | 0.0 | 0.0 | 0.00 | 0.00 | 0.00 | 90 | 1018.9 | |
| 20260509031000 | 49 | 0.0 | 0.0 | 0.00 | 0.00 | 0.00 | 90 | 11.0 | |
| 20260509030000 | 49 | 0.0 | 0.0 | 0.00 | 0.00 | 0.00 | 90 | 1019.0 | |
| 20260509025000 | 49 | 0.0 | 0.0 | 0.00 | 0.00 | 0.00 | 90 | 1018.9 | |
| 20260509024000 | 49 | 0.0 | 0.0 | 0.00 | 0.00 | 0.00 | 90 | 1018.9 | |
| 20260509023000 | 49 | 0.0 | 0.0 | 0.00 | 0.00 | 0.00 | 90 | 1018.9 | |
| 20260509022000 | 49 | 0.0 | 0.0 | 0.00 | 0.00 | 0.00 | 90 | 1019.0 | |
| 20260509021000 | 49 | 0.0 | 0.0 | 0.00 | 0.00 | 0.00 | 89 | 1018.9 | |
| 20260509020001 | 50 | 0.0 | 0.0 | 0.00 | 0.00 | 0.00 | 90 | 1018.8 | |
| 20260509015001 | 50 | 0.0 | 0.0 | 0.00 | 0.00 | 0.00 | 89 | 1018.9 | |
| 20260509014001 | 49 | 0.0 | 0.0 | 0.00 | 0.00 | 0.00 | 89 | 1018.9 | |
| 20260509013001 | 50 | 0.0 | 0.0 | 0.00 | 0.00 | 0.00 | 90 | 1019.0 | |
| 20260509012001 | 50 | 0.0 | 0.0 | 0.00 | 0.00 | 0.00 | 90 | 1019.0 | |
| 20260509011001 | 50 | 0.0 | 0.0 | 0.00 | 0.00 | 0.00 | 89 | 1019.0 | |
| 20260509010001 | 50 | 0.0 | 0.0 | 0.00 | 0.00 | 0.00 | 90 | 1019.1 | |
| 20260509005001 | 50 | 0.0 | 0.0 | 0.00 | 0.00 | 0.00 | 90 | 1019.0 | |
| 20260509004001 | 50 | 0.0 | 0.0 | 0.00 | 0.00 | 0.00 | 90 | 1019.1 | |
| 20260509003001 | 50 | 0.0 | 0.0 | 0.00 | 0.00 | 0.00 | 90 | 1019.2 | |
| 20260509002001 | 50 | 0.0 | 0.0 | 0.00 | 0.00 | 0.00 | 90 | 1019.1 | |
| 20260509001000 | 50 | 0.0 | 0.0 | 0.00 | 0.00 | 0.00 | 89 | 1019.1 | |
| 20260508235000 | 50 | 0.0 | 0.0 | 0.00 | 0.00 | 0.00 | 87 | 1019.3 | |
| 20260508234000 | 50 | 0.0 | 0.0 | 0.00 | 0.00 | 0.00 | 87 | 1019.3 | |
| 20260508233000 | 50 | 0.0 | 0.0 | 0.00 | 0.00 | 0.00 | 86 | 1019.3 | |
| 20260508232000 | 50 | 0.0 | 0.0 | 0.00 | 0.00 | 0.00 | 86 | 1019.4 | |
| 20260508231000 | 50 | 0.0 | 0.0 | 0.00 | 0.00 | 0.00 | 87 | 1019.3 | |
| 20260508230000 | 50 | 0.0 | 0.0 | 0.00 | 0.00 | 0.00 | 87 | 1019.4 | |
| 20260508225000 | 50 | 0.0 | 0.0 | 0.00 | 0.00 | 0.00 | 87 | 1019.5 | |
| 20260508224000 | 50 | 0.0 | 0.0 | 0.00 | 0.00 | 0.00 | 86 | 1019.5 | |
| 20260508223000 | 51 | 0.0 | 0.0 | 0.00 | 0.00 | 0.00 | 86 | 1019.4 | |
| 20260508222000 | 51 | 0.0 | 0.0 | 0.00 | 0.00 | 0.00 | 86 | 1019.4 | |
| 20260508221000 | 51 | 0.0 | 0.0 | 0.00 | 0.00 | 0.00 | 86 | 1019.2 | |
| 20260508220001 | 51 | 0.0 | 0.0 | 0.00 | 0.00 | 0.00 | 86 | 1019.2 | |
| 20260508215001 | 51 | 0.0 | 0.0 | 0.00 | 0.00 | 0.00 | 85 | 1019.2 | |
| 20260508214001 | 51 | 0.0 | 0.0 | 0.00 | 0.00 | 0.00 | 85 | 1019.1 | |
| 20260508213001 | 51 | 0.0 | 0.0 | 0.00 | 0.00 | 0.00 | 84 | 1019.2 | |
| 20260508212001 | 51 | 0.0 | 0.0 | 0.00 | 0.00 | 0.00 | 85 | 1019.1 | |
| 20260508211001 | 51 | 0.0 | 0.0 | 0.00 | 0.00 | 0.00 | 85 | 1019.2 | |
| 20260508210001 | 52 | 0.0 | 0.0 | 0.00 | 0.00 | 0.00 | 85 | 1019.1 | |
| 20260508205001 | 52 | 0.0 | 0.0 | 0.00 | 0.00 | 0.00 | 86 | 1019.0 | |
| 20260508204001 | 52 | 0.0 | 0.0 | 0.00 | 0.00 | 0.00 | 86 | 1018.9 | |
| 20260508203001 | 52 | 0.0 | 0.0 | 0.00 | 0.00 | 0.00 | 86 | 1018.8 | |
| 20260508202001 | 52 | 0.0 | 0.0 | 0.00 | 0.00 | 0.00 | 86 | 1018.9 | |
| 20260508201001 | 52 | 0.0 | 0.0 | 0.00 | 0.00 | 0.00 | 85 | 1018.9 | |
| 20260508200001 | 52 | 0.0 | 0.0 | 0.00 | 0.00 | 0.00 | 85 | 1018.7 | |
| 20260508195001 | 53 | 0.0 | 0.0 | 0.00 | 0.00 | 0.00 | 85 | 1018.6 | |
| 20260508194001 | 53 | 0.0 | 0.0 | 0.00 | 0.00 | 0.00 | 84 | 1018.7 | |
| 20260508193001 | 53 | 0.0 | 0.0 | 0.00 | 0.00 | 0.00 | 84 | 1018.7 | |
| 20260508192001 | 53 | 0.0 | 0.0 | 0.00 | 0.00 | 0.00 | 83 | 1018.5 | |
| 20260508191001 | 53 | 0.0 | 0.0 | 0.00 | 0.00 | 0.00 | 82 | 1018.6 | |
| 20260508185001 | 54 | 0.0 | 0.0 | 0.00 | 0.00 | 0.00 | 81 | 1018.5 | |
| 20260508184001 | 54 | 0.0 | 0.0 | 0.00 | 0.00 | 0.00 | 81 | 1018.3 | |
| 20260508183001 | 54 | 0.0 | 0.0 | 0.00 | 0.00 | 0.00 | 81 | 1018.2 |